Regional Weather Roundup
Issued by NWS Upton, NY

Current Version | Previous Version | Text Only | Print | Product List | Glossary On
Versions: 1 2 3 4 5 6 7 8 9 10 11 12 13 14 15 16 17 18 19 20 21 22 23 24 25 26 27 28 29 30 31 32 33 34 35 36 37 38 39 40 41 42 43 44 45 46
000
ASUS41 KOKX 060105
RWROKX

REGIONAL WEATHER ROUNDUP
NATIONAL WEATHER SERVICE NEW YORK NY
800 PM EST THU MAR 05 2015

NOTE: "FAIR" INDICATES FEW OR NO CLOUDS BELOW 12,000 FEET WITH NO
SIGNIFICANT WEATHER AND/OR OBSTRUCTIONS TO VISIBILITY.

NYZ071-072-176-178-NJZ106-104-060200-
NEW YORK CITY METRO AREA


CITY           SKY/WX    TMP DP  RH WIND       PRES   REMARKS
CENTRAL PARK   CLOUDY    21  12  68 VRB3      30.28R HAZE
LAGUARDIA APRT CLOUDY    24  13  62 NW10      30.26R WCI  14
KENNEDY INTL   FLURRIES  24  13  62 NW15      30.27S WCI  11
NEWARK/LIBERTY FLURRIES  22  12  65 NW12      30.28R WCI  10
BRNX BOT. GARD   N/A    N/A N/A N/A W3        30.29R
TETERBORO      CLOUDY    22   8  55 NW7       30.28R WCI  13
$$

NYZ177-179-078>081-060200-
LONG ISLAND NEW YORK

CITY           SKY/WX    TMP DP  RH WIND       PRES   REMARKS
FARMINGDALE    CLOUDY    22  14  71 NW13      30.25S WCI  10
ISLIP          FLURRIES  22  13  68 NW14      30.22R WCI   9
SHIRLEY        FLURRIES  22  15  75 N12       30.24R WCI  10
WESTHAMPTON    MIX PCPN  22  16  78 NW9       30.25R WCI  12
MONTAUK POINT    N/A     24  19  81 NW13      30.22R WCI  12
$$

NYZ052-065-067-060200-
HUDSON VALLEY

CITY           SKY/WX    TMP DP  RH WIND       PRES   REMARKS
WHITE PLAINS   CLOUDY    20   8  60 NW9       30.23R WCI   9
NEWBURGH       CLOUDY    19   5  53 NW12      30.26R WCI   7
MONTGOMERY     CLOUDY    20   2  45 NW13G18   30.26R WCI   7
POUGHKEEPSIE   CLOUDY    22   4  46 N6        30.27R WCI  14
ALBANY         CLOUDY    18  -1  43 NW14      30.30R WCI   4
$$

NJZ001-105-106-008-010-013-015-019>022-104-060200-
NEW JERSEY

CITY           SKY/WX    TMP DP  RH WIND       PRES   REMARKS
NEWARK/LIBERTY FLURRIES  22  12  65 NW12      30.28R WCI  10
TETERBORO      CLOUDY    22   8  55 NW7       30.28R WCI  13
CALDWELL       CLOUDY    21   6  52 NW7       30.28R WCI  12
MORRISTOWN     CLOUDY    21  10  63 NW6       30.29R WCI  14
SOMERVILLE     CLOUDY    21  12  68 NW7       30.28R WCI  12
SUSSEX         CLOUDY    20   2  45 NW7       30.27R WCI  11
ANDOVER          N/A     19   5  54 VRB7      30.27R WCI  10
TRENTON        CLOUDY    20  12  71 NW9G20    30.28R WCI   9
MILLVILLE      MIX PCPN  21  32 100 NW13G24   30.31R WCI   9
ATLANTIC CITY  LGT SNOW  20  17  88 NW16      30.28R FOG     WCI   6
WRIGHTSTOWN    FLURRIES  20  14  79 NW13      30.27R WCI   7
TOMS RIVER     CLOUDY    19  18  93 NW7       30.29R WCI  10
BELMAR         CLOUDY    19  10  68 NW14      30.26R WCI   6
$$

PAZ047>061-062-071-060200-
EASTERN PENNSYLVANIA

CITY           SKY/WX    TMP DP  RH WIND       PRES   REMARKS
PHILADELPHIA   CLOUDY    21  13  71 NW9       30.34R WCI  11
ALLENTOWN      CLOUDY    19   4  51 N10       30.30R WCI   7
SCRANTON       CLOUDY    16   1  51 N10       30.28R WCI   4
$$

CTZ002-004>006-009-010-012-RIZ004-006-007-MAZ004-011-015-060200-
SOUTHERN NEW ENGLAND
 IN CT

CITY           SKY/WX    TMP DP  RH WIND       PRES   REMARKS
BRADLEY INTL   CLOUDY    23   6  48 NW13      30.23R WCI  11
HARTFORD       CLOUDY    23   6  48 NW9       30.25R WCI  13
DANBURY        CLOUDY    20   3  48 N8        30.25R WCI  10
WTRBRY/OXFORD  CLOUDY    19   1  45 N9        30.21S WCI   9
BRIDGEPORT     CLOUDY    22   9  57 NW14      30.24R WCI   9
MERIDEN        CLOUDY    22   6  50 NW14      30.24R WCI   9
NEW HAVEN      CLOUDY    23  11  60 NW12      30.24R WCI  12
CHESTER        FAIR      23  14  68 NW7       30.20S WCI  15
GROTON         FLURRIES  22  16  78 NW9       30.20R WCI  12
WILLIMANTIC    CLOUDY    24   5  44 NW12      30.21R WCI  13

 IN RI

CITY           SKY/WX    TMP DP  RH WIND       PRES   REMARKS
PROVIDENCE     CLOUDY    23  17  78 NW6       30.21R WCI  16
BLOCK ISLAND   CLOUDY    25  18  74 N10       30.17R WCI  15
WESTERLY       CLOUDY    23  19  85 NW6       30.20F WCI  16

 IN MA

CITY           SKY/WX    TMP DP  RH WIND       PRES   REMARKS
BOSTON         CLOUDY    22   0  38 NW15      30.23R WCI   9
WORCESTER      CLOUDY    18  -1  43 NW12      30.15R WCI   5
WESTFIELD      CLOUDY    22   4  46 N9        30.22R WCI  12
PROVINCETOWN   CLOUDY    25  10  54 NW15G22   30.19S WCI  12
NANTUCKET      LGT SNOW  24  20  84 N17       30.17R FOG     WCI  11
$$

ANZ330-335-338-340-345-350-353-355-060200-
COASTAL MARINE OBSERVATIONS


STATION/POSITION TIME  SKY/WX   TEMP    WIND        PRES    VSBY  WAVE
                                AIR SEA DIR/SP/G                  HT/PER
                 (UTC)          (F)     (DEG/KT/KT) (MB)    (MI)  (FT/S)
NY HARB ENTRANCE 0100            25 38  330/ 19/ 23 1024.2          3/ 4
4S FIRE IS       NOT AVBL
20S FIRE ISLAND  0000               36              1023.1          4/ 4
23SW MTP         0100                                 N/A           4/ 4
HUDSON CANYON    NOT AVBL
EXECUTION ROCKS  NOT AVBL
WESTERN LI SOUND NOT AVBL
CENTRAL LI SOUND NOT AVBL
EASTERN LI SOUND NOT AVBL
ROBBINS REEF     0100            22     320/  9/ 11 1024.3
$$


>>>>>>>>>>>>>>>>>>>>>>>>>>>> KEY <<<<<<<<<<<<<<<<<<<<<<<<<<<
>                                                          <
>     SKY/WX - SKY CONDITION/PRESENT WEATHER               <
>     TMP    - TEMPERATURE IN FAHRENHEIT                   <
>     DP     - DEWPOINT IN FAHRENHEIT                      <
>     RH     - RELATIVE HUMIDITY IN PERCENT                <
>     WIND   - DIRECTION AND SPEED IN MPH                  <
>     PRES   - MEAN SEA LEVEL PRESSURE IN INCHES OF HG     <
>     WCI    - WIND CHILL INDEX                            <
>     VSB    - VISIBILITY IN MILES                         <
>     HX     - HEAT INDEX                                  <
>     TC     - TEMPERATURE IN CELSIUS                      <
>     VRB    - VARIABLE WIND DIRECTION                     <
>                                                          <
>>>>>>>>>>>>>>>>>>>>>>>>>>>> KEY <<<<<<<<<<<<<<<<<<<<<<<<<<<





USA.gov is the U.S. government's official web portal to all federal, state and local government web resources and services.